User: anonymous   Login
Location: Unspecified
(0.0000°N, 0.0000°E)
Time: 00:58:31
(UTC+00:00)
Language:

Kitsat-3 - Orbit

View from above orbital plane
View from above orbital plane
View from above satellite
View from above satellite

Ground track
Ground track

The orbit data is extracted from the following two-line orbital elements,

1 25756U 99029A   18173.79243794 -.00000008  00000-0  92936-5 0  9992
2 25756  98.4221 100.1415 0013675 178.6294 181.4942 14.53718668 11330
Epoch (UTC): 22 June 2018 19:01:06
Eccentricity: 0.0013675
inclination: 98.4221°
perigee height: 704 km
apogee height: 723 km
right ascension of ascending node: 100.1415°
argument of perigee: 178.6294°
revolutions per day: 14.53718668
mean anomaly at epoch: 181.4942°
orbit number at epoch: 1133

The dashed part of the orbit path shows where the satellite is in the earth's shadow,  

DLR